Weather History for Fayetteville, AR

Change the Weather History Date:

Friday, November 23, 2012

  Actual Average Record
Temperature  
Mean Temperature 42 °F 44 °F  
Max Temperature 57 °F 55 °F 73 °F (1973)
Min Temperature 25 °F 33 °F 13 °F (1970)
Degree Days  
Heating Degree Days 23 21  
Month to date heating degree days 372  
Since 1 July heating degree days 672  
Moisture  
Dew Point 27 °F    
Average Humidity 56    
Maximum Humidity 85    
Minimum Humidity 38    
Precipitation  
Precipitation 0.00 in 0.13 in 1.55 in (1951)
Month to date precipitation 3.28  
Year to date precipitation 44.32  
Sea Level Pressure  
Sea Level Pressure 30.38 in    
Wind  
Wind Speed 9 mph (NNW)    
Max Wind Speed 17 mph    
Max Gust Speed 28 mph    
Visibility 10 miles    
Events      
T = Trace of Precipitation, MM = Missing Value Source: NWS Daily Summary

Daily Weather History Graph

Daily Weather History Graph

Search for Another Location

Airport:

Trip Planner

Search our weather history database for the weather conditions in past years. The results will help you decide how hot, cold, wet, or windy it might be!

Date:

Astronomy

Nov. 23, 2012 Rise Set
Actual Time 7:01 AM CST 5:04 PM CST
Civil Twilight 6:33 AM CST 5:32 PM CST
Nautical Twilight 6:02 AM CST 6:03 PM CST
Astronomical Twilight 5:31 AM CST 6:34 PM CST
Moon 2:13 PM CST (11/23) 2:28 AM CST (11/23)
Length of Visible Light 10h 58m
Length of Day
10h 02m
Waxing Gibbous, 80% of the Moon is Illuminated
Nov 23
Waxing Gibbous
Nov 28
Full
Dec 6
Last Quarter
Dec 13
New
Dec 19
First Quarter

Hourly Weather History & Observations

Time (CST) Temp. Windchill Dew Point Humidity Pressure Visibility Wind Dir Wind Speed Gust Speed Precip Events Conditions
12:53 AM 57.0 °F - 44.1 °F 62% 30.19 in 10.0 mi NNE 8.1 mph 18.4 mph N/A   Overcast
1:53 AM 54.0 °F - 33.1 °F 45% 30.22 in 10.0 mi North 10.4 mph 19.6 mph N/A   Overcast
2:53 AM 51.1 °F - 34.0 °F 52% 30.26 in 10.0 mi North 8.1 mph - N/A   Clear
3:53 AM 50.0 °F - 34.0 °F 54% 30.28 in 10.0 mi North 8.1 mph - N/A   Mostly Cloudy
4:53 AM 46.0 °F 43.1 °F 32.0 °F 58% 30.32 in 10.0 mi North 5.8 mph - N/A   Clear
5:53 AM 45.0 °F 41.8 °F 30.9 °F 58% 30.34 in 10.0 mi North 5.8 mph - N/A   Clear
6:53 AM 34.0 °F 31.0 °F 30.0 °F 85% 30.37 in 10.0 mi North 3.5 mph - N/A   Clear
7:53 AM 39.9 °F 37.8 °F 33.1 °F 77% 30.39 in 10.0 mi North 3.5 mph - N/A   Clear
8:53 AM 46.9 °F - 34.0 °F 61% 30.40 in 10.0 mi NW 10.4 mph - N/A   Clear
9:53 AM 46.9 °F - 30.0 °F 52% 30.42 in 10.0 mi NW 16.1 mph 23.0 mph N/A   Clear
10:53 AM 48.0 °F - 30.0 °F 50% 30.43 in 10.0 mi NNW 9.2 mph - N/A   Clear
11:53 AM 46.9 °F - 25.0 °F 42% 30.42 in 10.0 mi NW 15.0 mph 25.3 mph N/A   Clear
12:53 PM 46.0 °F 39.9 °F 23.0 °F 40% 30.41 in 10.0 mi NW 13.8 mph 23.0 mph N/A   Clear
1:53 PM 45.0 °F 37.9 °F 21.0 °F 39% 30.41 in 10.0 mi NW 16.1 mph 27.6 mph N/A   Clear
2:53 PM 44.1 °F 36.5 °F 21.0 °F 40% 30.41 in 10.0 mi NNW 17.3 mph 21.9 mph N/A   Clear
3:53 PM 43.0 °F 35.4 °F 19.0 °F 38% 30.41 in 10.0 mi NNW 16.1 mph - N/A   Clear
4:53 PM 39.0 °F 31.4 °F 19.9 °F 46% 30.42 in 10.0 mi NW 12.7 mph - N/A   Clear
5:53 PM 37.0 °F 29.8 °F 21.0 °F 52% 30.43 in 10.0 mi NW 10.4 mph - N/A   Clear
6:53 PM 34.0 °F 28.0 °F 19.9 °F 56% 30.45 in 10.0 mi NNW 6.9 mph - N/A   Clear
7:53 PM 33.1 °F 26.9 °F 21.0 °F 61% 30.45 in 10.0 mi NNW 6.9 mph - N/A   Clear
8:53 PM 33.1 °F 30.0 °F 19.9 °F 59% 30.45 in 10.0 mi North 3.5 mph - N/A   Clear
9:53 PM 30.9 °F 27.5 °F 19.9 °F 64% 30.45 in 10.0 mi North 3.5 mph - N/A   Clear
10:53 PM 27.0 °F - 21.0 °F 78% 30.45 in 10.0 mi Calm Calm - N/A   Clear
11:53 PM 25.0 °F - 19.9 °F 81% 30.44 in 10.0 mi Calm Calm - N/A   Clear